SCP
0 0 0 0 0 0 0 0 0 0 0 0 0 0 0 0 0 0 0 0 0 0 0 0 0 0 0 0 0 0 0 0 0 0 0 0 0 0 0 0 0 0 0
0 0 0 0 0 0 0 0 0 0 0 0 0 0 0 0 0 0 0 0 0 0 0 0 0 0 0 0 0 0 0 0 0 0 0 0 0 0 0 0 0 0 0
0 0 0 0 0 0 0 0 0 0 0 0 0 0 0 0 0 0 0 0 0 0 0 0 0 0 0 0 0 0 0 0 0 0 0 0 0 0 0 0 0 0 0
0 0 0 0 0 0 0 0 0 0 0 0 0 0 0 0 0 0 0 0 0 0 0 0 0 0 0 0 0 0 0 0 0 0 0 0 0 0 0 0 0 0 0
0 0 0 0 0 0 0 0 0 0 0 0 0 0 0 0 0 0 0 0 0 0 0 0 0 0 0 0 0 0 0 0 0 0 0 0 0 0 0 0 0 0 0
0 0 0 0 0 0 0 0 0 0 0 0 0 0 0 0 0 0 0 0 0 0 0 0 0 0 0 0 0 0 0 0 0 0 0 0 0 0 0 0 0 0 0
0 0 0 0 0 0 0 0 0 0 0 0 0 0 0 0 0 0 0 0 0 0 0 0 0 0 0 0 0 0 0 0 0 0 0 0 0 0 0 0 0 0 0
0 0 0 0 0 0 0 0 0 0 0 0 0 0 0 0 0 0 0 0 0 0 0 0 0 0 0 0 0 0 0 0 0 0 0 0 0 0 0 0 0 0 0
0 0 0 0 0 0 0 0 0 0 0 0 0 0 0 0 0 0 0 0 0 0 0 0 0 0 0 0 0 0 0 0 0 0 0 0 0 0 0 0 0 0 0
0 0 0 0 0 0 0 0 0 0 0 0 0 0 0 0 0 0 0 0 0 0 0 0 0 0 -0 -0 0 0 0 0 0 0 0 0 0 0 0 0 0 0 0
0 0 0 0 0 0 0 0 0 0 0 0 0 0 0 0 0 0 -0 0 0 0 0 0 0 0 0 -0 -0 0 0 0 0 0 0 0 0 0 0 0 0 0 0
0 0 0 0 0 0 0 0 0 0 0 0 0 0 0 0 0 0 0 0 0 0 0 0 0 0 0 0 0 0 0 0 0 0 0 0 0 0 0 0 0 0 0
0 0 0 0 0 0 0 0 0 0 0 0 0 0 0 0 0 0 0 0 0 0 0 0 0 0 0 0 0 0 0 0 0 0 0 0 0 0 0 0 0 0 0
0 0 0 0 0 0 0 0 0 0 0 0 0 0 0 0 0 0 0 0 0 0 0 0 0 0 0 0 0 0 0 0 0 0 0 0 0 0 0 0 0 0 0
0 0 0 0 0 0 0 0 0 0 0 0 0 0 0 0 0 0 0 0 0 0 0 0 0 0 0 0 0 0 0 0 0 0 0 0 0 0 0 0 0 0 0
0 0 0 0 0 0 0 0 0 0 0 0 0 0 0 0 0 0 0 0 0 0 0 0 0 0 0 0 0 0 0 0 0 0 0 0 0 0 0 0 0 0 0
0 0 0 0 0 0 0 0 0 0 0 0 0 0 0 0 0 0 0 0 0 0 0 0 0 0 0 0 0 0 0 0 0 0 0 0 0 0 0 0 0 0 0
0 0 0 0 0 0 0 0 0 0 0 0 0 0 0 0 0 0 0 0 0 0 0 0 0 0 0 0 0 0 0 0 0 0 0 0 0 0 0 0 0 0 0
0 0 0 0 0 0 0 0 0 0 0 0 0 0 0 0 0 0 -0 -0 -0 0 0 0 0 0 0 0 0 0 0 0 0 0 0 0 0 0 0 0 0 0 0
0 0 0 0 0 0 0 0 0 0 0 0 0 0 -0 -0 -0 -0 -0 -0 -0 -0 0 0 0 0 0 0 0 0 0 0 0 0 0 0 0 0 0 0 0 0 0
0 0 0 0 0 0 0 0 0 0 0 0 0 -0 -0 -0 -0 -0 -0 -0 -0 -0 -0 0 0 0 0 0 0 0 0 0 0 0 0 0 0 0 0 0 0 0 0
0 0 0 0 0 0 0 0 0 0 0 0 0 0 -0 0 0 0 0 0 -0 -0 0 0 0 0 0 0 0 0 0 0 0 0 0 0 0 0 0 0 0 0 0
0 0 0 0 0 0 0 0 0 0 0 0 0 0 0 0 0 0 0 0 0 0 0 0 0 0 0 0 0 0 0 0 0 0 0 0 0 0 0 0 0 0 0
0 0 0 0 0 0 0 0 0 0 0 0 0 0 0 0 0 0 0 0 0 0 0 0 0 0 0 0 0 0 0 0 0 0 0 0 0 0 -0 -0 0 0 0
0 0 0 0 0 0 0 0 0 0 0 0 0 0 0 0 0 0 0 0 0 0 0 0 0 0 0 0 0 0 0 0 0 0 0 0 0 0 0 0 0 0 0
0 0 0 0 0 0 0 0 0 0 0 0 0 0 0 0 0 0 0 0 0 0 0 0 0 0 0 0 0 0 -0 -0 0 0 0 0 0 0 0 0 0 0 0
Wind_Speed_500mb
40 38 35 35 35 33 31 29 27 27 26 23 23 25 27 31 34 36 37 37 38 40 43 46 47 48 50 52 53 54 56 51 62 97 73 71 69 71 73 71 75 74 76
38 34 33 33 34 34 33 32 33 31 27 24 25 26 29 34 37 36 36 37 38 41 44 48 51 52 54 56 57 59 61 60 64 85 91 89 85 80 84 85 86 79 77
41 40 39 39 39 39 37 37 36 33 30 29 29 31 35 40 37 36 38 39 40 43 47 51 54 57 58 59 60 61 62 63 65 74 95 87 87 83 83 82 82 79 79
49 49 49 47 48 46 45 45 44 41 40 41 43 43 44 42 39 37 38 39 40 44 50 55 58 59 61 62 64 65 64 66 68 72 83 89 85 82 79 85 92 82 89
58 58 57 57 54 52 52 53 52 52 51 54 52 49 48 45 40 37 38 43 51 57 60 61 64 65 64 62 64 67 66 69 73 75 83 89 90 88 83 82 89 93 99
69 69 66 65 61 61 62 63 61 59 58 57 57 55 54 50 45 42 46 52 56 61 65 67 72 76 77 75 69 67 70 73 77 75 84 91 97 91 87 85 88 92 102
75 77 76 72 70 70 69 67 66 65 63 62 61 60 58 55 50 49 50 57 63 67 71 77 83 85 86 85 83 84 83 79 76 76 86 91 93 88 86 89 87 90 99
56 64 76 77 76 74 72 72 70 69 67 65 64 62 62 59 56 58 59 66 72 75 79 84 91 96 95 91 88 93 93 89 86 80 82 90 90 90 86 85 86 93 106
55 57 63 71 76 74 74 71 70 69 69 67 67 66 65 66 65 67 70 76 80 85 88 93 100 107 105 95 89 91 95 96 90 90 89 90 93 93 91 87 90 86 106
50 51 56 62 67 70 73 71 70 70 69 69 68 66 68 70 73 76 78 80 87 91 97 105 111 110 106 97 91 91 101 101 96 97 100 102 101 99 90 82 79 83 85
39 38 38 41 49 57 62 64 63 63 64 66 69 70 73 74 75 80 83 82 86 96 105 113 111 108 105 101 94 96 102 101 99 98 101 105 101 100 94 84 78 74 80
28 27 27 29 34 38 42 47 51 55 59 62 64 68 69 72 78 83 81 78 80 88 102 107 110 106 104 102 97 97 97 96 99 97 97 102 96 93 90 84 81 79 82
12 14 15 18 22 27 33 37 41 46 51 56 61 68 70 71 73 76 79 82 85 87 97 105 110 112 108 108 103 95 84 86 91 91 91 91 81 82 78 71 71 76 82
13 15 16 18 20 23 26 30 33 39 46 52 57 63 68 71 72 75 80 84 86 89 95 104 105 101 98 99 100 88 80 76 80 88 90 91 84 78 77 71 73 75 82
9 11 13 17 19 23 26 30 34 37 39 45 50 57 66 71 69 68 68 73 75 78 84 98 108 106 109 97 90 83 76 76 82 87 90 91 88 84 86 81 83 82 84
11 14 17 21 24 27 29 30 32 32 33 36 41 50 56 61 67 68 68 69 71 68 82 91 98 87 86 84 83 82 76 74 78 83 86 85 86 84 83 78 76 80 84
19 20 20 22 24 24 27 30 33 31 35 37 43 48 54 64 69 74 76 74 72 67 76 87 91 90 91 84 81 78 80 76 76 83 90 90 88 89 84 81 76 77 82
18 16 16 16 19 22 25 30 36 43 46 44 44 52 57 62 66 70 74 77 87 84 83 85 87 86 86 86 85 84 84 82 78 80 83 84 83 85 88 86 83 81 78
15 17 18 19 21 23 26 29 33 39 45 51 55 54 58 63 68 74 73 74 80 85 83 84 83 86 86 84 84 85 84 84 81 82 85 85 82 82 89 84 79 74 82
14 16 18 19 20 23 28 31 35 40 45 51 55 61 65 69 71 74 76 77 78 81 80 80 84 87 89 89 90 90 91 88 83 79 79 81 82 80 84 81 83 78 73
13 16 20 22 24 26 30 34 37 40 45 49 53 55 59 61 69 72 75 77 80 83 84 83 84 86 87 91 91 90 92 95 90 87 84 83 84 85 84 81 94 84 80
16 18 20 23 25 27 30 33 36 41 45 50 54 55 58 62 67 71 73 76 78 80 82 84 86 85 84 84 85 88 93 96 95 90 89 88 86 82 81 77 81 83 70
18 18 20 22 25 28 31 34 37 41 45 48 53 59 61 64 66 69 73 76 80 84 85 86 87 87 83 83 83 83 89 93 93 90 89 89 87 87 69 69 63 66 60
21 20 20 22 24 27 30 33 36 40 44 48 51 54 58 62 66 70 73 77 80 84 87 88 90 90 89 88 87 87 89 88 85 86 81 82 84 77 88 98 75 72 66
25 24 24 25 27 30 32 34 36 39 42 47 51 54 56 60 64 68 71 75 80 84 86 87 89 90 87 81 77 75 75 78 77 73 74 77 77 71 65 62 68 69 62
29 29 28 28 29 31 33 35 37 39 43 47 50 53 57 60 62 66 69 71 77 81 82 84 88 89 93 88 72 68 68 66 69 55 51 57 57 51 53 63 68 59 57
Wind_Direction_500mb
206 213 220 230 224 217 215 216 221 231 239 247 259 269 276 282 287 292 296 300 304 304 304 304 303 303 302 300 297 294 290 285 281 297 293 297 296 299 302 304 305 308 308
217 221 228 225 222 220 221 224 227 227 228 238 253 266 276 281 285 291 298 304 309 310 310 309 310 309 308 304 301 298 294 293 287 289 296 298 300 302 305 305 306 307 308
228 232 231 232 231 231 230 229 227 228 233 243 252 259 265 270 276 285 292 298 304 308 310 313 315 314 311 307 304 301 299 295 290 288 294 297 299 302 305 305 307 306 307
236 238 235 235 237 237 234 231 231 233 238 242 244 248 253 260 268 277 285 293 301 306 308 310 313 314 312 309 304 301 299 294 292 289 291 295 298 301 303 307 308 311 310
245 242 241 241 239 237 235 235 235 236 239 244 244 245 249 255 261 269 280 290 297 299 301 306 309 309 309 306 303 301 297 294 291 291 293 296 297 301 304 307 305 307 307
253 251 247 244 243 241 239 238 239 240 240 243 245 246 249 253 260 270 281 287 291 294 297 302 307 308 309 307 303 297 293 290 289 289 292 291 296 298 302 302 301 303 304
259 254 250 247 246 244 243 241 241 241 241 242 245 248 251 256 264 274 281 286 290 293 296 300 304 307 307 306 304 300 294 290 285 286 285 287 291 294 296 296 296 295 293
258 256 252 250 248 245 243 242 241 241 242 244 246 252 258 263 270 277 283 286 290 296 298 300 302 304 304 304 301 298 295 292 289 285 282 286 287 290 288 287 286 286 288
251 248 247 248 249 246 242 240 240 241 243 246 251 256 264 271 278 284 289 291 294 297 298 300 302 302 303 303 300 297 295 292 291 292 289 285 283 283 282 281 279 283 289
254 251 247 242 239 238 237 238 239 242 246 251 258 267 274 280 286 290 293 295 296 297 300 300 300 300 300 300 299 296 292 294 297 294 293 291 290 289 285 279 279 276 278
242 243 241 237 233 232 234 237 241 247 254 262 269 275 280 284 288 290 294 299 302 301 300 300 300 300 300 300 299 296 294 298 295 293 290 289 288 287 286 282 280 274 272
235 238 239 237 236 237 242 249 256 261 265 269 273 278 283 288 290 292 298 302 303 300 298 298 298 297 295 292 289 286 286 286 284 283 282 282 283 284 286 283 282 275 270
230 234 233 236 241 247 251 256 262 267 271 276 280 285 289 293 298 302 305 305 303 299 296 295 295 296 296 294 292 290 288 282 283 279 277 278 278 283 283 275 268 266 268
209 218 223 232 243 253 263 269 274 282 290 295 298 300 303 306 308 307 305 304 303 302 301 299 298 297 294 293 293 292 290 284 279 275 274 277 279 277 275 274 271 269 270
241 252 264 271 277 283 288 297 305 308 313 315 315 313 315 315 315 313 310 309 306 303 302 299 299 300 299 296 292 288 285 282 279 277 276 277 277 277 276 276 273 271 265
290 293 296 296 297 300 303 306 308 312 319 320 322 323 321 319 319 316 312 308 306 306 301 297 296 294 291 293 292 292 289 284 280 278 275 274 275 276 277 273 268 264 263
312 307 304 306 307 312 314 316 317 322 330 334 333 331 327 324 325 323 322 317 312 308 300 300 297 296 295 293 291 289 287 285 283 279 278 277 276 276 275 273 268 265 263
326 322 323 327 331 336 339 338 337 336 335 334 336 335 333 332 331 330 331 325 320 318 312 308 303 300 298 295 293 290 289 287 284 281 279 276 274 273 272 272 269 263 259
336 342 345 346 347 343 339 338 338 338 338 339 339 338 336 334 337 343 339 331 326 320 315 306 300 296 294 291 289 288 286 284 283 280 278 276 273 273 271 271 267 259 265
335 332 331 336 339 342 340 341 343 342 343 344 346 345 343 345 343 341 341 339 333 327 318 307 301 298 295 292 291 289 287 284 282 279 277 276 275 274 271 270 268 266 261
322 323 324 326 333 339 339 340 343 344 345 346 347 349 350 342 342 344 344 343 339 332 326 320 313 308 304 300 293 289 286 285 282 280 278 278 277 274 272 274 269 264 264
310 312 318 324 331 336 337 337 340 342 345 344 345 347 348 346 346 344 343 343 342 338 334 327 321 317 312 308 303 298 290 284 281 279 277 277 277 273 276 273 268 265 244
299 308 313 321 327 330 331 334 338 339 341 342 342 344 346 346 345 345 344 344 343 341 340 336 328 323 320 317 312 306 298 293 288 284 279 272 269 273 274 264 281 252 254
291 298 305 312 319 323 327 331 334 336 336 338 340 341 342 343 343 343 344 344 343 342 341 340 338 332 323 318 314 310 306 303 298 291 285 278 272 268 260 262 270 252 245
287 293 301 309 314 320 324 327 329 332 333 335 336 337 339 341 341 341 341 342 343 342 341 342 342 338 333 323 313 308 307 307 301 291 282 277 271 266 259 266 244 235 222
285 291 296 302 307 312 316 320 325 329 331 332 333 335 337 339 340 340 339 341 343 342 343 342 344 342 343 337 325 318 314 311 311 301 283 272 263 251 246 233 228 217 205
Wind_Speed_850mb
40 38 35 35 35 33 31 29 27 27 26 23 23 25 27 31 34 36 37 37 38 40 43 46 47 48 50 52 53 54 56 51 62 97 73 71 69 71 73 71 75 74 76
38 34 33 33 34 34 33 32 33 31 27 24 25 26 29 34 37 36 36 37 38 41 44 48 51 52 54 56 57 59 61 60 64 85 91 89 85 80 84 85 86 79 77
41 40 39 39 39 39 37 37 36 33 30 29 29 31 35 40 37 36 38 39 40 43 47 51 54 57 58 59 60 61 62 63 65 74 95 87 87 83 83 82 82 79 79
49 49 49 47 48 46 45 45 44 41 40 41 43 43 44 42 39 37 38 39 40 44 50 55 58 59 61 62 64 65 64 66 68 72 83 89 85 82 79 85 92 82 89
58 58 57 57 54 52 52 53 52 52 51 54 52 49 48 45 40 37 38 43 51 57 60 61 64 65 64 62 64 67 66 69 73 75 83 89 90 88 83 82 89 93 99
69 69 66 65 61 61 62 63 61 59 58 57 57 55 54 50 45 42 46 52 56 61 65 67 72 76 77 75 69 67 70 73 77 75 84 91 97 91 87 85 88 92 102
75 77 76 72 70 70 69 67 66 65 63 62 61 60 58 55 50 49 50 57 63 67 71 77 83 85 86 85 83 84 83 79 76 76 86 91 93 88 86 89 87 90 99
56 64 76 77 76 74 72 72 70 69 67 65 64 62 62 59 56 58 59 66 72 75 79 84 91 96 95 91 88 93 93 89 86 80 82 90 90 90 86 85 86 93 106
55 57 63 71 76 74 74 71 70 69 69 67 67 66 65 66 65 67 70 76 80 85 88 93 100 107 105 95 89 91 95 96 90 90 89 90 93 93 91 87 90 86 106
50 51 56 62 67 70 73 71 70 70 69 69 68 66 68 70 73 76 78 80 87 91 97 105 111 110 106 97 91 91 101 101 96 97 100 102 101 99 90 82 79 83 85
39 38 38 41 49 57 62 64 63 63 64 66 69 70 73 74 75 80 83 82 86 96 105 113 111 108 105 101 94 96 102 101 99 98 101 105 101 100 94 84 78 74 80
28 27 27 29 34 38 42 47 51 55 59 62 64 68 69 72 78 83 81 78 80 88 102 107 110 106 104 102 97 97 97 96 99 97 97 102 96 93 90 84 81 79 82
12 14 15 18 22 27 33 37 41 46 51 56 61 68 70 71 73 76 79 82 85 87 97 105 110 112 108 108 103 95 84 86 91 91 91 91 81 82 78 71 71 76 82
13 15 16 18 20 23 26 30 33 39 46 52 57 63 68 71 72 75 80 84 86 89 95 104 105 101 98 99 100 88 80 76 80 88 90 91 84 78 77 71 73 75 82
9 11 13 17 19 23 26 30 34 37 39 45 50 57 66 71 69 68 68 73 75 78 84 98 108 106 109 97 90 83 76 76 82 87 90 91 88 84 86 81 83 82 84
11 14 17 21 24 27 29 30 32 32 33 36 41 50 56 61 67 68 68 69 71 68 82 91 98 87 86 84 83 82 76 74 78 83 86 85 86 84 83 78 76 80 84
19 20 20 22 24 24 27 30 33 31 35 37 43 48 54 64 69 74 76 74 72 67 76 87 91 90 91 84 81 78 80 76 76 83 90 90 88 89 84 81 76 77 82
18 16 16 16 19 22 25 30 36 43 46 44 44 52 57 62 66 70 74 77 87 84 83 85 87 86 86 86 85 84 84 82 78 80 83 84 83 85 88 86 83 81 78
15 17 18 19 21 23 26 29 33 39 45 51 55 54 58 63 68 74 73 74 80 85 83 84 83 86 86 84 84 85 84 84 81 82 85 85 82 82 89 84 79 74 82
14 16 18 19 20 23 28 31 35 40 45 51 55 61 65 69 71 74 76 77 78 81 80 80 84 87 89 89 90 90 91 88 83 79 79 81 82 80 84 81 83 78 73
13 16 20 22 24 26 30 34 37 40 45 49 53 55 59 61 69 72 75 77 80 83 84 83 84 86 87 91 91 90 92 95 90 87 84 83 84 85 84 81 94 84 80
16 18 20 23 25 27 30 33 36 41 45 50 54 55 58 62 67 71 73 76 78 80 82 84 86 85 84 84 85 88 93 96 95 90 89 88 86 82 81 77 81 83 70
18 18 20 22 25 28 31 34 37 41 45 48 53 59 61 64 66 69 73 76 80 84 85 86 87 87 83 83 83 83 89 93 93 90 89 89 87 87 69 69 63 66 60
21 20 20 22 24 27 30 33 36 40 44 48 51 54 58 62 66 70 73 77 80 84 87 88 90 90 89 88 87 87 89 88 85 86 81 82 84 77 88 98 75 72 66
25 24 24 25 27 30 32 34 36 39 42 47 51 54 56 60 64 68 71 75 80 84 86 87 89 90 87 81 77 75 75 78 77 73 74 77 77 71 65 62 68 69 62
29 29 28 28 29 31 33 35 37 39 43 47 50 53 57 60 62 66 69 71 77 81 82 84 88 89 93 88 72 68 68 66 69 55 51 57 57 51 53 63 68 59 57
Wind_Direction_850mb
206 213 220 230 224 217 215 216 221 231 239 247 259 269 276 282 287 292 296 300 304 304 304 304 303 303 302 300 297 294 290 285 281 297 293 297 296 299 302 304 305 308 308
217 221 228 225 222 220 221 224 227 227 228 238 253 266 276 281 285 291 298 304 309 310 310 309 310 309 308 304 301 298 294 293 287 289 296 298 300 302 305 305 306 307 308
228 232 231 232 231 231 230 229 227 228 233 243 252 259 265 270 276 285 292 298 304 308 310 313 315 314 311 307 304 301 299 295 290 288 294 297 299 302 305 305 307 306 307
236 238 235 235 237 237 234 231 231 233 238 242 244 248 253 260 268 277 285 293 301 306 308 310 313 314 312 309 304 301 299 294 292 289 291 295 298 301 303 307 308 311 310
245 242 241 241 239 237 235 235 235 236 239 244 244 245 249 255 261 269 280 290 297 299 301 306 309 309 309 306 303 301 297 294 291 291 293 296 297 301 304 307 305 307 307
253 251 247 244 243 241 239 238 239 240 240 243 245 246 249 253 260 270 281 287 291 294 297 302 307 308 309 307 303 297 293 290 289 289 292 291 296 298 302 302 301 303 304
259 254 250 247 246 244 243 241 241 241 241 242 245 248 251 256 264 274 281 286 290 293 296 300 304 307 307 306 304 300 294 290 285 286 285 287 291 294 296 296 296 295 293
258 256 252 250 248 245 243 242 241 241 242 244 246 252 258 263 270 277 283 286 290 296 298 300 302 304 304 304 301 298 295 292 289 285 282 286 287 290 288 287 286 286 288
251 248 247 248 249 246 242 240 240 241 243 246 251 256 264 271 278 284 289 291 294 297 298 300 302 302 303 303 300 297 295 292 291 292 289 285 283 283 282 281 279 283 289
254 251 247 242 239 238 237 238 239 242 246 251 258 267 274 280 286 290 293 295 296 297 300 300 300 300 300 300 299 296 292 294 297 294 293 291 290 289 285 279 279 276 278
242 243 241 237 233 232 234 237 241 247 254 262 269 275 280 284 288 290 294 299 302 301 300 300 300 300 300 300 299 296 294 298 295 293 290 289 288 287 286 282 280 274 272
235 238 239 237 236 237 242 249 256 261 265 269 273 278 283 288 290 292 298 302 303 300 298 298 298 297 295 292 289 286 286 286 284 283 282 282 283 284 286 283 282 275 270
230 234 233 236 241 247 251 256 262 267 271 276 280 285 289 293 298 302 305 305 303 299 296 295 295 296 296 294 292 290 288 282 283 279 277 278 278 283 283 275 268 266 268
209 218 223 232 243 253 263 269 274 282 290 295 298 300 303 306 308 307 305 304 303 302 301 299 298 297 294 293 293 292 290 284 279 275 274 277 279 277 275 274 271 269 270
241 252 264 271 277 283 288 297 305 308 313 315 315 313 315 315 315 313 310 309 306 303 302 299 299 300 299 296 292 288 285 282 279 277 276 277 277 277 276 276 273 271 265
290 293 296 296 297 300 303 306 308 312 319 320 322 323 321 319 319 316 312 308 306 306 301 297 296 294 291 293 292 292 289 284 280 278 275 274 275 276 277 273 268 264 263
312 307 304 306 307 312 314 316 317 322 330 334 333 331 327 324 325 323 322 317 312 308 300 300 297 296 295 293 291 289 287 285 283 279 278 277 276 276 275 273 268 265 263
326 322 323 327 331 336 339 338 337 336 335 334 336 335 333 332 331 330 331 325 320 318 312 308 303 300 298 295 293 290 289 287 284 281 279 276 274 273 272 272 269 263 259
336 342 345 346 347 343 339 338 338 338 338 339 339 338 336 334 337 343 339 331 326 320 315 306 300 296 294 291 289 288 286 284 283 280 278 276 273 273 271 271 267 259 265
335 332 331 336 339 342 340 341 343 342 343 344 346 345 343 345 343 341 341 339 333 327 318 307 301 298 295 292 291 289 287 284 282 279 277 276 275 274 271 270 268 266 261
322 323 324 326 333 339 339 340 343 344 345 346 347 349 350 342 342 344 344 343 339 332 326 320 313 308 304 300 293 289 286 285 282 280 278 278 277 274 272 274 269 264 264
310 312 318 324 331 336 337 337 340 342 345 344 345 347 348 346 346 344 343 343 342 338 334 327 321 317 312 308 303 298 290 284 281 279 277 277 277 273 276 273 268 265 244
299 308 313 321 327 330 331 334 338 339 341 342 342 344 346 346 345 345 344 344 343 341 340 336 328 323 320 317 312 306 298 293 288 284 279 272 269 273 274 264 281 252 254
291 298 305 312 319 323 327 331 334 336 336 338 340 341 342 343 343 343 344 344 343 342 341 340 338 332 323 318 314 310 306 303 298 291 285 278 272 268 260 262 270 252 245
287 293 301 309 314 320 324 327 329 332 333 335 336 337 339 341 341 341 341 342 343 342 341 342 342 338 333 323 313 308 307 307 301 291 282 277 271 266 259 266 244 235 222
285 291 296 302 307 312 316 320 325 329 331 332 333 335 337 339 340 340 339 341 343 342 343 342 344 342 343 337 325 318 314 311 311 301 283 272 263 251 246 233 228 217 205